Showing default

GALAXY 23 (TELSTAR 13), 27854

Orbit data source: Space-Track

GALAXY 23 (TELSTAR 13), 27854 is a payload satellite owned by Echostar (US) in GEO that was launched on Fri, 08 Aug 2003 UTC via a ZENIT-3SL launch vehicle from the Sea Launch (SEAL). Payload-class satellites include a variety of spacecraft equipped with specific instruments for various scientific and technological missions. These include communications satellites like Starlink; space stations such as the ISS; scientific satellites like the Hubble; Earth observation satellites from companies like Planet Labs, Umbra, and HawkEye 360; GPS; miniature CubeSats for education and research; and military/defense satellites.

Not visible in the next 10 days
Identifier
27854, 2003-034A
Orbit
GEO
Country
Flag of USUS
Related business
Manufacturer
SS/Loral
Mission
Non-operational Commercial Communications
Bus & Motor
SSL-1300, R-4D-11-164
Mass
4,737 kg wet, ~2,000 kg dry
Launch date (UTC)
2003-08-08 (23 years ago)
Launch vehicle
ZENIT-3SL
Launch site
Sea Launch (SEAL)
Object type
Payload
Rocket body
Debris
Shape & HBR
Box + 2 Pan, 15.5 m
Radar Cross Section
40.765 m², Large (>1 m²)

Expand to show TLE details & history
Last TLE update: 21 hours ago

TLE from 21 hours ago
0 GALAXY 23 (TELSTAR 13)
1 27854U 03034A   26071.80385064 -.00000018  00000-0  00000-0 0  9996
2 27854   2.9530  80.7724 0003294 212.2278 258.6668  0.98952275 82746
Epoch: 2026-03-12T19:17Z
TLE epoch observation values (Epoch: 2026-03-12T19:17:32.695Z)
Latitude
2.77164°
Longitude
91.83592°
Altitude
36,162.593 km
Speed
3.061 km/s
True Right ascension
12h 46m 40s
True Declination
2° 46' 08"
Sunlit
Object was in daylight at epoch
Visualization orbit readout
Latitude
Unknown
Longitude
Unknown
Altitude
Unknown
Speed
Unknown
Apparent Right ascension
Unknown
Apparent Declination
Unknown
Sunlit
N/A
Visualization observer readout
Local Sidereal Time
20:54:01
Azimuth
Unknown
Elevation
Unknown
Doppler factor
Unknown
Orbital elements
Apogee altitude
36,175.676 km
Perigee altitude
36,147.651 km
Semi-major axis
42,539.8 km
Eccentricity
0.00033
Inclination
2.953°
RAAN
80.7724°
Arg. of periapsis
212.2278°
True anomaly
258.62979°
Mean anomaly
258.6668°
Eccentric anomaly
258.6483°
Mean motion
0.24737 °/min
Orbital period
1,455.3 mins
BSTAR
0
Loading maneuver chart data...
Computing Atmospheric mass density...
Loading historical data...
Loading historical data...
Loading historical data...
Loading historical data...
Loading historical data...
Loading historical data...
Loading historical data...
Other satellites on launch #34 in the year 2003 (2003-08-08 UTC)

Documentation

Showing up to 5 results
|